Regional Weather Roundup
Issued by NWS

Home | Current Version | Previous Version | Graphics & Text | Print | Product List | Glossary On
Versions: 1 2 3 4 5 6 7 8 9 10 11 12 13 14 15 16 17 18 19 20 21 22 23 24 25 26 27 28 29 30 31 32 33 34 35 36 37 38 39 40 41 42 43 44 45 46 47 48 49 50
000
ASUS43 KFSD 221110
RWRSD

WEATHER ROUNDUP FOR SOUTH DAKOTA
NATIONAL WEATHER SERVICE SIOUX FALLS SD
500 AM CST WED NOV 22 2017

NOTE: "FAIR" INDICATES FEW OR NO CLOUDS BELOW 12,000 FEET WITH NO
SIGNIFICANT WEATHER AND/OR OBSTRUCTIONS TO VISIBILITY.


SDZ001>005-009-010-012>017-221200-
NORTHWEST AND NORTH CENTRAL SOUTH DAKOTA

CITY           SKY/WX    TMP DP  RH WIND       PRES   REMARKS
BUFFALO          N/A     27  20  75 S5        29.94F WCI  22
FAITH            N/A     19  13  77 S20       30.04F WCI   3
MOBRIDGE       CLOUDY    22  13  68 S13       30.10F WCI  10
$$

SDZ012>016-024>037-041>051-057-063-072>074-221200-
SOUTHWEST AND SOUTH CENTRAL SOUTH DAKOTA

CITY           SKY/WX    TMP DP  RH WIND       PRES   REMARKS
RAPID CTY ARPT CLOUDY    29  22  75 CALM      30.04F
PIERRE         CLOUDY    19  12  74 SE12      30.15F WCI   7
CUSTER         CLOUDY    44  18  35 W10       30.09S
ELLSWORTH AFB  CLOUDY    30  24  76 W6        30.03F WCI  24
PHILIP         CLOUDY    21  19  92 CALM      30.10F
PINE RIDGE     CLOUDY    34  28  79 W7        30.11F WCI  28
SPEARFISH      FAIR      48  25  40 W12       30.03F
WINNER         FAIR      24  16  71 SE7       30.16F WCI  16
$$

SDZ004>011-016>023-039-040-221200-
NORTHEAST SOUTH DAKOTA

CITY           SKY/WX    TMP DP  RH WIND       PRES   REMARKS
ABERDEEN       CLOUDY     5   2  87 SE6       30.24F WCI  -6
WATERTOWN      CLOUDY     9   7  92 S8        30.23F WCI  -3
BROOKINGS      CLOUDY    11   7  84 S9        30.27F WCI  -2
SISSETON         N/A      9   5  84 S7        30.25F WCI  -2
$$

SDZ017-020-022-023-036>040-048>070-221200-
SOUTHEAST SOUTH DAKOTA

CITY           SKY/WX    TMP DP  RH WIND       PRES   REMARKS
SIOUX FALLS    CLOUDY    13   7  77 S5        30.31F WCI   5
HURON          CLOUDY    11   6  81 SE7       30.27F WCI   0
CHAMBERLAIN    CLOUDY    19  16  87 SE5       30.21F WCI  12
MITCHELL       CLOUDY    12   8  84 SE5       30.30F WCI   4
YANKTON        CLOUDY    12   9  87 SE3       30.33F
$$

ABBREVIATIONS USED IN REMARKS
   TC - TEMPERATURE IN CELSIUS
  WCI - WIND CHILL INDEX
   HX - HEAT INDEX
  VSB - VISIBILITY





USA.gov is the U.S. government's official web portal to all federal, state and local government web resources and services.